Vertical_Velocity
0 -2 -1 -1 -0 2 1 2 2 -1 -1 -2 -3 -2 0 1 -0 -2 3 2 -3 7 1 -1 -5 1 1 0 2 -0 -1 -1 -1 -1 -1 -0 2 1 0 0 -1 -2 1
0 -0 -2 0 -2 0 1 2 0 -2 -1 -0 -0 -2 -1 1 3 -1 -2 3 16 5 2 -1 1 1 1 -4 3 -1 0 -1 -1 0 1 0 1 1 1 0 -2 -1 -0
1 1 -1 -4 -0 0 1 1 1 0 -2 0 0 0 -2 -0 1 -1 -2 3 7 2 0 -0 -1 1 0 0 1 0 -0 -0 -1 -1 -1 0 1 0 0 -1 1 0 0
1 0 2 -1 -2 -3 -2 -2 0 -0 -1 -1 -2 -2 0 2 2 -2 -1 3 3 1 1 -2 -1 1 1 -2 -2 2 0 -2 -1 1 1 1 -1 0 2 1 2 1 1
1 -2 -1 -1 -1 -1 1 1 -0 0 0 -2 -1 -1 -1 -0 1 -2 3 2 -0 1 3 -1 -1 -0 0 2 0 1 -0 0 -1 -0 0 1 -1 -1 0 1 -0 -0 0
1 -1 -2 -0 -2 -2 -1 1 2 1 2 -0 -1 -1 -0 2 -3 4 3 -1 -0 0 0 -1 -0 0 3 1 -0 -1 0 -1 0 -2 -1 0 1 -0 -1 -0 -0 0 0
2 -0 -2 1 -1 -1 -1 0 -0 -1 1 -1 -2 -1 -1 1 -2 23 19 2 5 0 2 -2 -1 -0 1 -0 1 -1 -1 1 1 -0 -1 -1 1 -1 -0 1 1 0 0
0 2 -2 -1 -1 -2 -0 -2 1 -1 1 -1 -2 -3 1 -1 4 -1 2 2 -0 -1 0 -0 -1 1 -0 1 -1 -2 -1 -1 -2 1 -1 -1 -0 1 1 0 0 -0 -2
-1 4 -1 -1 -1 -1 -0 -1 -1 -1 -0 -1 -3 -1 1 3 -1 -4 6 3 -1 2 -1 1 -1 -1 -1 -1 -1 -0 1 1 2 1 0 -1 0 1 -1 -0 -1 0 -0
0 3 0 -1 -3 -2 -0 -0 -0 -1 1 -3 -4 1 2 2 0 -4 -5 1 -1 3 1 1 0 1 -2 -0 1 1 -0 1 0 0 1 1 1 1 1 0 -0 -0 0
-0 3 -0 -2 -2 -1 -2 -2 -0 -1 1 -2 -2 -1 -2 1 6 -0 0 1 1 4 -1 1 -2 1 1 -0 -0 0 -1 -1 1 2 1 0 0 1 1 1 -1 1 -1
1 1 -1 -1 -2 -3 -2 -1 -1 -0 -0 -1 -2 0 3 2 15 1 3 7 14 4 7 7 5 -1 -2 -0 -0 -0 1 2 2 1 1 1 2 2 -0 -1 -0 -2 0
6 3 -0 -2 -1 -4 -3 -2 -1 -2 -0 -2 -2 -1 -1 -1 1 4 11 6 7 6 6 5 3 2 4 7 4 -1 2 -1 1 1 3 1 1 -0 -0 -0 0 1 0
3 7 1 0 -2 -2 -2 -2 -1 -2 0 -3 -1 -1 2 -2 -2 1 7 6 9 10 0 7 -3 2 1 10 0 -1 0 1 3 2 1 1 0 0 -1 -1 1 1 -1
2 2 2 2 0 -1 -2 -2 -3 -1 0 -4 -1 -1 -2 -1 3 5 6 5 12 2 2 1 0 1 0 -1 1 4 2 2 1 0 1 1 0 0 -1 1 1 -2 -1
-2 -0 2 1 -2 -2 -2 -2 -1 -1 -1 -3 -1 1 2 0 -4 -3 0 2 3 -0 2 -0 -1 4 5 5 4 6 4 3 4 3 1 1 1 -0 -0 1 0 1 -0
-0 3 3 0 -1 -3 -0 -2 -1 -1 -2 -2 -2 0 2 0 -1 -1 -4 3 3 1 -0 -1 0 -1 -2 0 -1 -0 -0 -1 4 1 3 2 -1 -0 -1 -2 -1 0 2
1 1 1 0 -1 -2 -2 -2 -0 -2 -1 -1 -2 1 2 1 0 -0 0 -1 0 2 -0 2 -0 2 1 4 2 -2 -1 -1 1 2 -3 -5 0 -2 0 -0 1 2 1
9 -2 2 3 1 -1 -0 -2 1 -2 -0 -2 -4 2 0 1 0 1 2 -1 3 1 1 2 1 -0 2 6 3 -1 4 0 -1 -4 -5 0 3 3 1 -1 -1 -0 -1
7 -9 5 1 3 -0 0 -1 1 -1 -2 -0 -2 -1 3 3 -1 -0 -1 0 -2 -0 1 -3 -2 3 2 6 3 -1 -3 -2 -1 -2 -1 2 1 -0 1 0 0 -2 -1
25 -7 6 4 7 1 1 0 -0 0 -0 0 -3 -1 -1 -1 0 2 3 1 -0 0 0 1 -1 -1 1 1 3 -1 2 -0 -2 0 -1 1 -3 0 -0 -0 0 -1 -1
3 -0 2 -3 9 2 1 -2 -3 -1 1 1 -0 -2 1 1 2 -2 -2 1 3 0 -0 0 1 3 -1 -1 2 1 1 0 2 -4 0 -1 -1 -0 -1 0 0 -0 0
8 3 4 2 -1 11 -1 -6 -4 -2 -1 -0 -2 -1 1 -0 -1 -2 2 -1 -1 -0 1 -0 1 1 1 -2 -1 2 1 -1 4 -2 -2 -3 -2 -2 1 3 3 1 3
-5 1 -5 -3 -5 7 17 -3 2 -0 -2 -2 -1 -2 -1 -3 -1 -1 1 -0 1 2 0 -1 1 1 1 -0 1 -1 0 1 0 0 -1 -3 1 -1 -2 0 0 -3 -1
-2 9 5 5 3 1 4 10 7 1 2 0 -1 0 -1 -2 2 -1 0 1 -0 1 1 1 2 2 2 1 -1 -1 0 -1 2 4 3 1 1 -1 -4 0 1 1 -2
2 -2 -12 1 2 1 6 -2 -1 -1 -2 -0 3 -1 -1 1 1 -0 -3 1 1 -1 1 -1 -0 -1 1 3 4 -0 1 -0 -0 1 1 -5 0 -0 -2 1 1 -2 -1
Height
5798 5798 5796 5795 5793 5792 5790 5790 5788 5787 5787 5786 5784 5783 5785 5786 5786 5787 5788 5790 5793 5794 5796 5801 5804 5808 5810 5813 5815 5816 5817 5818 5818 5818 5818 5819 5821 5821 5822 5822 5821 5822 5823
5793 5793 5792 5791 5789 5787 5786 5786 5784 5783 5783 5781 5780 5778 5779 5781 5782 5781 5782 5783 5786 5790 5791 5796 5800 5804 5805 5807 5810 5812 5813 5814 5814 5815 5815 5816 5818 5818 5819 5819 5819 5820 5820
5788 5788 5788 5786 5785 5783 5782 5781 5779 5778 5777 5776 5775 5773 5773 5773 5774 5774 5775 5777 5781 5784 5787 5791 5795 5799 5802 5804 5806 5808 5809 5810 5810 5811 5812 5813 5814 5815 5816 5816 5816 5817 5817
5783 5782 5782 5781 5779 5779 5776 5775 5773 5772 5772 5771 5769 5767 5767 5768 5767 5766 5769 5772 5776 5780 5782 5786 5790 5795 5798 5800 5802 5804 5806 5807 5806 5807 5809 5810 5810 5811 5812 5812 5812 5812 5812
5777 5776 5776 5775 5774 5774 5772 5770 5769 5767 5765 5764 5763 5761 5760 5761 5760 5760 5763 5768 5772 5775 5778 5782 5787 5790 5793 5796 5798 5800 5802 5802 5803 5803 5804 5805 5805 5806 5807 5807 5807 5807 5806
5770 5770 5770 5769 5768 5767 5766 5764 5762 5761 5759 5757 5757 5755 5754 5755 5753 5753 5758 5763 5767 5771 5774 5778 5782 5786 5789 5791 5793 5796 5797 5798 5798 5799 5800 5800 5801 5801 5802 5802 5801 5800 5799
5763 5764 5764 5762 5761 5760 5760 5758 5756 5754 5753 5751 5751 5749 5748 5748 5749 5751 5753 5758 5763 5766 5769 5774 5777 5780 5783 5786 5789 5790 5791 5792 5793 5794 5794 5795 5796 5796 5796 5795 5794 5793 5792
5754 5757 5757 5755 5755 5754 5753 5751 5750 5748 5746 5745 5744 5742 5742 5741 5744 5745 5749 5753 5758 5761 5764 5768 5772 5775 5778 5781 5783 5785 5786 5787 5788 5789 5789 5790 5790 5790 5790 5788 5787 5786 5785
5747 5750 5750 5748 5748 5747 5746 5745 5743 5741 5740 5739 5737 5736 5735 5735 5736 5737 5742 5748 5753 5757 5759 5763 5766 5769 5772 5775 5778 5779 5780 5781 5781 5782 5782 5783 5783 5783 5783 5781 5780 5778 5776
5739 5742 5743 5741 5741 5741 5740 5738 5737 5735 5733 5732 5731 5730 5728 5726 5723 5731 5735 5742 5747 5751 5755 5757 5760 5763 5765 5768 5771 5773 5774 5774 5774 5775 5775 5776 5776 5775 5774 5773 5772 5770 5769
5731 5734 5735 5734 5734 5733 5733 5732 5730 5728 5726 5725 5725 5723 5721 5719 5721 5724 5729 5737 5742 5746 5749 5751 5754 5756 5758 5761 5763 5765 5766 5766 5767 5768 5768 5769 5768 5767 5767 5765 5764 5762 5761
5723 5725 5727 5727 5726 5725 5725 5725 5724 5721 5719 5719 5718 5718 5717 5715 5716 5722 5727 5731 5736 5739 5743 5745 5747 5749 5751 5753 5755 5756 5757 5759 5760 5760 5761 5761 5760 5760 5759 5757 5755 5755 5753
5713 5717 5718 5719 5719 5719 5718 5718 5717 5715 5713 5712 5712 5711 5710 5709 5711 5715 5720 5723 5729 5732 5735 5738 5739 5741 5743 5745 5746 5748 5750 5750 5751 5752 5753 5753 5752 5751 5749 5748 5747 5746 5745
5703 5707 5709 5710 5712 5711 5711 5711 5711 5709 5707 5706 5706 5706 5705 5704 5704 5710 5713 5718 5723 5726 5728 5730 5730 5734 5735 5737 5738 5739 5741 5742 5743 5744 5745 5745 5745 5743 5742 5740 5740 5738 5737
5694 5697 5700 5702 5703 5703 5704 5704 5705 5703 5701 5700 5700 5701 5701 5701 5701 5704 5707 5711 5715 5717 5719 5721 5723 5725 5727 5729 5732 5733 5734 5735 5736 5737 5737 5737 5736 5735 5734 5733 5732 5731 5730
5685 5689 5692 5694 5695 5696 5696 5697 5699 5697 5696 5696 5696 5696 5697 5698 5699 5699 5701 5705 5709 5711 5713 5715 5718 5719 5721 5723 5725 5726 5727 5728 5728 5728 5728 5728 5727 5726 5726 5725 5724 5724 5724
5677 5680 5683 5684 5688 5688 5689 5691 5693 5692 5691 5691 5692 5692 5693 5694 5695 5696 5698 5701 5704 5707 5708 5711 5712 5714 5716 5717 5717 5718 5719 5720 5720 5719 5719 5718 5718 5718 5718 5717 5716 5716 5717
5666 5670 5673 5676 5679 5680 5682 5683 5685 5686 5685 5686 5686 5687 5688 5688 5689 5690 5693 5695 5698 5700 5702 5704 5704 5707 5708 5709 5710 5711 5711 5711 5711 5711 5711 5710 5709 5710 5711 5711 5710 5710 5710
5653 5658 5663 5668 5670 5671 5674 5676 5678 5679 5679 5681 5681 5682 5683 5684 5683 5684 5686 5688 5691 5692 5694 5695 5697 5699 5700 5701 5701 5702 5703 5703 5703 5703 5702 5703 5703 5703 5703 5702 5701 5701 5700
5640 5647 5653 5658 5661 5663 5666 5668 5670 5672 5672 5674 5676 5677 5678 5678 5679 5680 5681 5682 5683 5684 5686 5688 5689 5690 5691 5692 5693 5694 5695 5696 5695 5694 5696 5697 5695 5694 5694 5693 5692 5691 5690
5634 5637 5644 5649 5653 5655 5658 5660 5662 5664 5665 5666 5670 5670 5672 5673 5673 5673 5674 5675 5677 5678 5680 5681 5682 5682 5683 5684 5686 5687 5688 5687 5687 5687 5687 5686 5685 5685 5684 5683 5682 5680 5679
5629 5632 5635 5639 5644 5647 5649 5651 5653 5655 5657 5658 5662 5664 5665 5666 5667 5667 5667 5669 5671 5671 5672 5673 5673 5675 5675 5677 5678 5679 5679 5678 5678 5678 5677 5676 5676 5675 5674 5672 5672 5670 5669
5620 5624 5629 5631 5634 5636 5640 5641 5643 5645 5647 5650 5652 5654 5656 5658 5659 5659 5661 5663 5663 5664 5665 5666 5666 5667 5667 5667 5668 5668 5668 5668 5668 5667 5667 5666 5665 5663 5662 5660 5659 5657 5655
5611 5612 5615 5620 5624 5626 5630 5631 5633 5636 5637 5638 5641 5643 5646 5647 5649 5650 5651 5652 5653 5654 5655 5656 5657 5658 5659 5658 5658 5657 5657 5656 5656 5656 5655 5653 5653 5651 5650 5648 5646 5643 5641
5599 5595 5606 5610 5612 5616 5619 5619 5622 5625 5628 5628 5630 5632 5635 5635 5636 5637 5639 5640 5641 5643 5645 5646 5647 5647 5648 5648 5647 5646 5645 5644 5644 5643 5642 5641 5640 5639 5635 5633 5631 5629 5626
5588 5590 5596 5598 5601 5604 5607 5610 5611 5613 5616 5618 5620 5622 5623 5623 5624 5624 5624 5626 5628 5630 5632 5633 5634 5635 5634 5634 5633 5633 5633 5631 5631 5631 5630 5628 5626 5624 5621 5618 5617 5613 5609